This demonstration page uses our WeatherBlox Daily Observations layout. Learn more.

Left ArrowRight Arrow

Hourly Observations for December 8, 2015

Temp ( °F °C ) Dew Point ( °F °C ) Humidity (%) Winds ( mph kmh ) Pressure ( in mb ) Visibility ( mi km ) Precip ( " mm )
12:51 am 00:51 Clear 37 2.8 22 -5.6 54 54 SE 7 11 30.12 1020 10 16 N/A
1:51 am 01:51 Clear 36 2.2 20 -6.7 52 52 WNW 3 6 30.13 1020 10 16 N/A
2:51 am 02:51 Clear 32 undefined 20 -6.7 61 61 NW 6 9 30.14 1021 10 16 N/A
3:51 am 03:51 Clear 32 undefined 20 -6.7 61 61 E 5 7 30.12 1020 10 16 N/A
4:51 am 04:51 Clear 31 -0.6 20 -6.7 64 64 ESE 3 6 30.13 1020 10 16 N/A
5:51 am 05:51 Clear 29 -1.7 20 -6.7 69 69 ESE 7 11 30.14 1021 10 16 N/A
6:51 am 06:51 Clear 29 -1.7 19 -7.2 66 66 E 3 6 30.19 1022 10 16 N/A
7:51 am 07:51 Sunny 35 1.7 22 -5.6 59 59 N N/A 30.18 1022 10 16 N/A
8:51 am 08:51 Sunny 41 5 22 -5.6 47 47 SE 7 11 30.19 1022 10 16 N/A
9:51 am 09:51 Sunny 47 8.3 23 -5 39 39 SE 5 7 30.20 1023 10 16 N/A
10:37 am 10:37 Hazy 51 10.6 24 -4.4 35 35 S 6 9 30.21 1023 2 3 N/A
10:51 am 10:51 Sunny 52 11.1 25 -3.9 35 35 S 6 9 30.18 1022 10 16 N/A
11:51 am 11:51 Sunny 56 13.3 24 -4.4 29 29 VRB 3 6 30.14 1021 10 16 N/A
12:51 pm 12:51 Sunny 58 14.4 23 -5 26 26 N N/A 30.10 1019 10 16 N/A
1:51 pm 13:51 Sunny 60 15.6 24 -4.4 25 25 N N/A 30.09 1019 10 16 N/A
2:51 pm 14:51 Sunny 62 16.7 24 -4.4 23 23 VRB 3 6 30.07 1018 10 16 N/A
3:51 pm 15:51 Sunny 64 17.8 24 -4.4 22 22 N N/A 30.05 1018 10 16 N/A
4:51 pm 16:51 Sunny 63 17.2 23 -5 22 22 ENE 5 7 30.04 1017 10 16 N/A
5:51 pm 17:51 Clear 54 12.2 22 -5.6 29 29 WNW 3 6 30.08 1019 10 16 N/A
6:51 pm 18:51 Clear 49 9.4 22 -5.6 35 35 N 3 6 30.11 1020 10 16 N/A
7:51 pm 19:51 Clear 49 9.4 22 -5.6 35 35 NNW 5 7 30.09 1019 10 16 N/A
8:51 pm 20:51 Clear 46 7.8 23 -5 40 40 E 6 9 30.09 1019 10 16 N/A
9:51 pm 21:51 Clear 42 5.6 22 -5.6 45 45 ESE 5 7 30.11 1020 10 16 N/A
10:51 pm 22:51 Clear 40 4.4 21 -6.1 47 47 SE 3 6 30.11 1020 10 16 N/A
11:51 pm 23:51 Clear 39 3.9 21 -6.1 48 48 ESE 3 6 30.10 1019 10 16 N/A

Powered by AerisWeather